STARLINK-5761, 55599

Orbit data source: Space-Track

STARLINK-5761, 55599 is a payload satellite owned by SpaceX/Seattle (US) in LEO that was launched on Sun, 12 Feb 2023 UTC via an FALCON 9 launch vehicle from the Air Force Eastern Test Range (AFETR). Payload-class satellites include a variety of spacecraft equipped with specific instruments for various scientific and technological missions. These include communications satellites like Starlink; space stations such as the ISS; scientific satellites like the Hubble; Earth observation satellites from companies like Planet Labs, Umbra, and HawkEye 360; GPS; miniature CubeSats for education and research; and military/defense satellites.

Loading next visibility...
Identifier
55599, 2023-020AG
Orbit
LEO
Country
Flag of USUS
Related business
Manufacturer
SpaceX/Seattle
Mission
Operational Commercial Communications
Bus & Motor
STARLINK, Unknown motor
Mass
305 kg wet, ~290 kg dry
Launch date (UTC)
2023-02-12 (3 years ago)
Launch vehicle
FALCON 9
Launch site
Air Force Eastern Test Range (AFETR)
Object type
Payload
Rocket body
Debris
Shape & HBR
Box + 1 Pan, 4.4 m
Radar Cross Section
13.562 m², Large (>1 m²)

Expand to show TLE details & history
Last TLE update: 14 hours ago

TLE from 14 hours ago
0 STARLINK-5761
1 55599U 23020AG  25260.24532378 -.00000430  00000-0 -16771-4 0  9994
2 55599  43.0025 214.5363 0001079 266.8942  93.1777 15.02531333142970
Epoch: 2025-09-17T05:53Z
TLE epoch observation values (Epoch: 2025-09-17T05:53:15.974Z)
Latitude
-0.00002°
Longitude
129.79569°
Altitude
558.914 km
Speed
7.584 km/s
True Right ascension
14h 18m 08s
True Declination
0° 00' 00"
Sunlit
Object was in daylight at epoch
Visualization orbit readout
Latitude
Unknown
Longitude
Unknown
Altitude
Unknown
Speed
Unknown
Apparent Right ascension
Unknown
Apparent Declination
Unknown
Sunlit
N/A
Visualization observer readout
Local Sidereal Time
12:32:05
Azimuth
Unknown
Elevation
Unknown
Doppler factor
Unknown
Orbital elements
Apogee altitude
561.766 km
Perigee altitude
560.269 km
Semi-major axis
6,939.154 km
Eccentricity
0.00011
Inclination
43.0025°
RAAN
214.5363°
Arg. of periapsis
266.8942°
True anomaly
93.19005°
Mean anomaly
93.1777°
Eccentric anomaly
93.18387°
Mean motion
3.75477 °/min
Orbital period
95.88 mins
BSTAR
-0.000016771
Loading maneuver chart data...
Computing Atmospheric mass density...
Loading historical data...
Loading historical data...
Loading historical data...
Loading historical data...
Loading historical data...
Loading historical data...
Loading historical data...

Documentation

Showing up to 5 results
|